Time,TemperatureF,DewpointF,PressureIn,WindDirection,WindDirectionDegrees,WindSpeedMPH,WindSpeedGustMPH,Humidity,HourlyPrecipIn,Conditions,Clouds,dailyrainin,SoftwareType,DateUTC
2013-03-03 00:00:00,31.5,23.9,29.92,NE,45,1.0,9.0,73,0.00,,---,0.00,VWS V14.01,2013-03-03 05:00:00,
2013-03-03 00:30:00,31.2,23.9,29.91,North,0,0.0,5.0,74,0.00,,---,0.00,VWS V14.01,2013-03-03 05:30:00,
2013-03-03 01:00:00,30.9,23.9,29.91,North,0,0.0,5.0,75,0.00,,---,0.00,VWS V14.01,2013-03-03 06:00:00,
2013-03-03 01:30:00,30.8,23.5,29.90,WNW,292,0.0,6.0,74,0.00,,---,0.00,VWS V14.01,2013-03-03 06:30:00,
2013-03-03 02:00:00,30.7,23.1,29.90,West,270,0.0,5.0,73,0.00,,---,0.00,VWS V14.01,2013-03-03 07:00:00,
2013-03-03 02:30:00,30.7,23.1,29.90,North,0,0.0,5.0,73,0.00,,---,0.00,VWS V14.01,2013-03-03 07:30:00,
2013-03-03 03:00:00,31.4,23.1,29.91,ENE,68,0.0,5.0,71,0.00,,---,0.00,VWS V14.01,2013-03-03 08:00:00,
2013-03-03 03:30:00,31.6,23.3,29.91,ENE,68,0.0,3.0,71,0.00,,---,0.00,VWS V14.01,2013-03-03 08:30:00,
2013-03-03 04:00:00,30.9,23.0,29.92,NE,45,0.0,4.0,72,0.00,,---,0.00,VWS V14.01,2013-03-03 09:00:00,
2013-03-03 04:30:00,30.4,22.8,29.92,NNE,22,0.0,3.0,73,0.00,,---,0.00,VWS V14.01,2013-03-03 09:30:00,
2013-03-03 05:00:00,30.2,22.9,29.92,ENE,68,0.0,3.0,74,0.00,,---,0.00,VWS V14.01,2013-03-03 10:00:00,
2013-03-03 05:30:00,29.8,22.9,29.92,SSW,202,0.0,3.0,75,0.00,,---,0.00,VWS V14.01,2013-03-03 10:30:00,
2013-03-03 06:00:00,30.3,23.3,29.92,NNE,22,0.0,3.0,75,0.00,,---,0.00,VWS V14.01,2013-03-03 11:00:00,
2013-03-03 06:30:00,31.7,24.4,29.93,WNW,292,0.0,4.0,74,0.00,,---,0.00,VWS V14.01,2013-03-03 11:30:00,
2013-03-03 07:00:00,33.4,25.0,29.93,NE,45,1.0,5.0,71,0.00,,---,0.00,VWS V14.01,2013-03-03 12:00:00,
2013-03-03 07:30:00,35.8,25.6,29.92,WNW,292,1.0,6.0,66,0.00,,---,0.00,VWS V14.01,2013-03-03 12:30:00,
2013-03-03 08:00:00,34.9,24.0,29.92,North,0,2.0,11.0,64,0.00,,---,0.00,VWS V14.01,2013-03-03 13:00:00,
2013-03-03 08:30:00,35.9,23.8,29.92,West,270,1.0,11.0,61,0.00,,---,0.00,VWS V14.01,2013-03-03 13:30:00,
2013-03-03 09:00:00,38.0,24.1,29.92,NE,45,2.0,12.0,57,0.00,,---,0.00,VWS V14.01,2013-03-03 14:00:00,
2013-03-03 09:30:00,40.0,24.7,29.91,NE,45,2.0,12.0,54,0.00,,---,0.00,VWS V14.01,2013-03-03 14:30:00,
2013-03-03 10:00:00,39.0,23.8,29.91,NE,45,3.0,11.0,54,0.00,,---,0.00,VWS V14.01,2013-03-03 15:00:00,
2013-03-03 10:30:00,39.8,24.5,29.90,NE,45,2.0,10.0,54,0.00,,---,0.00,VWS V14.01,2013-03-03 15:30:00,
2013-03-03 11:00:00,38.3,24.0,29.91,WNW,292,1.0,8.0,56,0.00,,---,0.00,VWS V14.01,2013-03-03 16:00:00,
2013-03-03 11:30:00,40.6,25.7,29.89,WNW,292,2.0,8.0,55,0.00,,---,0.00,VWS V14.01,2013-03-03 16:30:00,
2013-03-03 12:00:00,40.2,24.5,29.88,WNW,292,1.0,9.0,53,0.00,,---,0.00,VWS V14.01,2013-03-03 17:00:00,
2013-03-03 13:30:00,43.8,25.4,29.85,West,271,3.0,9.0,48,0.00,,---,0.00,VWS V15.00,2013-03-03 18:30:00,
2013-03-03 14:00:00,42.5,24.7,29.86,WNW,285,2.0,7.0,49,0.00,,---,0.00,VWS V15.00,2013-03-03 19:00:00,
2013-03-03 14:17:00,42.3,25.0,29.86,West,262,1.0,9.0,50,0.00,,---,0.00,VWS V14.01,2013-03-03 19:17:00,
2013-03-03 14:30:00,43.8,25.4,29.85,West,271,3.0,9.0,48,0.00,,---,0.00,VWS V14.01,2013-03-03 19:30:00,
2013-03-03 14:47:00,43.7,25.3,29.85,West,273,3.0,7.0,48,0.00,,---,0.00,VWS V14.01,2013-03-03 19:47:00,
2013-03-03 15:00:00,42.5,24.7,29.85,WNW,285,2.0,7.0,49,0.00,,---,0.00,VWS V14.01,2013-03-03 20:00:00,
2013-03-03 15:17:00,43.3,24.9,29.85,NNE,29,3.0,8.0,48,0.00,,---,0.00,VWS V14.01,2013-03-03 20:17:00,
2013-03-03 15:30:00,42.4,24.1,29.85,ENE,68,4.0,8.0,48,0.00,,---,0.00,VWS V14.01,2013-03-03 20:30:00,
2013-03-03 15:47:00,42.4,25.1,29.85,NE,52,0.0,6.0,50,0.00,,---,0.00,VWS V14.01,2013-03-03 20:47:00,
2013-03-03 16:00:00,42.0,24.2,29.85,NE,51,3.0,6.0,49,0.00,,---,0.00,VWS V14.01,2013-03-03 21:00:00,
2013-03-03 16:17:00,41.6,24.4,29.85,NW,307,2.0,5.0,50,0.00,,---,0.00,VWS V14.01,2013-03-03 21:17:00,
2013-03-03 16:30:00,41.3,24.1,29.86,NW,319,0.0,9.0,50,0.00,,---,0.00,VWS V14.01,2013-03-03 21:30:00,
2013-03-03 16:47:00,41.2,24.5,29.86,NNW,336,3.0,4.0,51,0.00,,---,0.00,VWS V14.01,2013-03-03 21:47:00,
2013-03-03 17:00:00,40.7,24.0,29.87,NNE,32,1.0,8.0,51,0.00,,---,0.00,VWS V14.01,2013-03-03 22:00:00,
2013-03-03 17:17:00,40.1,23.9,29.87,North,360,2.0,6.0,52,0.00,,---,0.00,VWS V14.01,2013-03-03 22:17:00,
2013-03-03 17:30:00,40.0,23.4,29.87,NNW,336,0.0,8.0,51,0.00,,---,0.00,VWS V14.01,2013-03-03 22:30:00,
2013-03-03 17:47:00,39.7,24.0,29.88,NNW,336,0.0,5.0,53,0.00,,---,0.00,VWS V14.01,2013-03-03 22:47:00,
2013-03-03 18:00:00,39.3,23.6,29.89,NNE,31,0.0,5.0,53,0.00,,---,0.00,VWS V14.01,2013-03-03 23:00:00,
2013-03-03 18:17:00,38.8,23.6,29.90,WSW,249,1.0,8.0,54,0.00,,---,0.00,VWS V14.01,2013-03-03 23:17:00,
2013-03-03 18:30:00,38.4,23.2,29.90,North,360,2.0,8.0,54,0.00,,---,0.00,VWS V14.01,2013-03-03 23:30:00,
2013-03-03 18:47:00,38.0,23.3,29.91,North,350,1.0,5.0,55,0.00,,---,0.00,VWS V14.01,2013-03-03 23:47:00,
2013-03-03 19:00:00,37.8,23.1,29.92,NNE,33,1.0,8.0,55,0.00,,---,0.00,VWS V14.01,2013-03-04 00:00:00,
2013-03-03 19:17:00,37.3,23.1,29.92,WNW,300,2.0,5.0,56,0.00,,---,0.00,VWS V14.01,2013-03-04 00:17:00,
2013-03-03 19:30:00,36.9,23.1,29.93,NNE,30,3.0,5.0,57,0.00,,---,0.00,VWS V14.01,2013-03-04 00:30:00,
2013-03-03 19:48:00,36.2,22.9,29.94,WNW,300,1.0,6.0,58,0.00,,---,0.00,VWS V14.01,2013-03-04 00:48:00,
2013-03-03 20:00:00,35.9,22.6,29.94,NE,36,4.0,6.0,58,0.00,,---,0.00,VWS V14.01,2013-03-04 01:00:00,
2013-03-03 20:18:00,35.5,22.6,29.95,NNE,31,0.0,5.0,59,0.00,,---,0.00,VWS V14.01,2013-03-04 01:18:00,
2013-03-03 20:30:00,35.1,21.8,29.95,WNW,292,0.0,10.0,58,0.00,,---,0.00,VWS V14.01,2013-03-04 01:30:00,
2013-03-03 20:48:00,34.7,21.5,29.96,North,360,0.0,4.0,58,0.00,,---,0.00,VWS V14.01,2013-03-04 01:48:00,
2013-03-03 21:00:00,34.4,21.6,29.96,WNW,285,3.0,6.0,59,0.00,,---,0.00,VWS V14.01,2013-03-04 02:00:00,
2013-03-03 21:18:00,34.1,20.9,29.96,SW,214,0.0,4.0,58,0.00,,---,0.00,VWS V14.01,2013-03-04 02:18:00,
2013-03-03 21:30:00,33.8,21.0,29.97,West,272,0.0,4.0,59,0.00,,---,0.00,VWS V14.01,2013-03-04 02:30:00,
2013-03-03 21:48:00,33.3,20.5,29.97,West,275,0.0,5.0,59,0.00,,---,0.00,VWS V14.01,2013-03-04 02:48:00,
2013-03-03 22:00:00,33.4,20.6,29.97,NE,53,4.0,11.0,59,0.00,,---,0.00,VWS V14.01,2013-03-04 03:00:00,
2013-03-03 22:18:00,33.2,20.4,29.97,WSW,254,0.0,5.0,59,0.00,,---,0.00,VWS V14.01,2013-03-04 03:18:00,
2013-03-03 22:30:00,33.0,20.2,29.98,East,87,2.0,6.0,59,0.00,,---,0.00,VWS V14.01,2013-03-04 03:30:00,
2013-03-03 22:48:00,32.7,20.4,29.97,West,280,2.0,5.0,60,0.00,,---,0.00,VWS V14.01,2013-03-04 03:48:00,
2013-03-03 23:00:00,32.6,20.3,29.97,NE,48,0.0,7.0,60,0.00,,---,0.00,VWS V14.01,2013-03-04 04:00:00,
2013-03-03 23:18:00,32.3,20.4,29.98,SSE,166,2.0,7.0,61,0.00,,---,0.00,VWS V14.01,2013-03-04 04:18:00,
2013-03-03 23:30:00,32.3,20.4,29.97,WSW,255,1.0,7.0,61,0.00,,---,0.00,VWS V14.01,2013-03-04 04:30:00,
2013-03-03 23:48:00,32.1,20.2,29.98,NW,315,0.0,5.0,61,0.00,,---,0.00,VWS V14.01,2013-03-04 04:48:00,